Back to catalog

COSMOS 862 DEB

LostHEO
NORAD 9902·DEBRIS·🇷🇺 Russia

Launched Oct 22, 1976 from Plesetsk Cosmodrome

Loading…

Next Passes (next 24 hours)

TLE

StaleSource: Space-Track

Epoch: Jan 4, 1993, 17:14 UTC

1  9902U 76105P   93004.71873481 -.00000754 +00000-0 +10000-3 0  9995
2  9902 064.5621 291.0928 7203762 192.8685 127.6131 01.98028326005637

Track COSMOS 862 DEB in real time with AllMySat

Download on the App Store